Miami, FL

12:18 PM EDT on March 28, 2017 (GMT -0400)
Miami International

Weather History for KMIA - April, 2013

Change the Weather History Date:

Friday, April 5, 2013

  Actual Average Record
Temperature  
Mean Temperature 71 °F 74 °F  
Max Temperature 76 °F 82 °F 92 °F (2011)
Min Temperature 65 °F 67 °F 45 °F (1944)
Degree Days  
Heating Degree Days 0 0  
Month to date heating degree days 0 0  
Since 1 July heating degree days 70 127  
Cooling Degree Days 6 10  
Month to date cooling degree days 51 46  
Year to date cooling degree days 663 615  
Growing Degree Days 20 (Base 50)    
Moisture  
Dew Point 65 °F    
Average Humidity 83    
Maximum Humidity 93    
Minimum Humidity 73    
Precipitation  
Precipitation 1.53 in 0.10 in 2.36 in (1950)
Month to date precipitation 2.15 0.53  
Year to date precipitation 5.35 7.40  
Snow  
Snow 0.00 in - - ()
Month to date snowfall 0.0  
Since 1 July snowfall 0.0  
Snow Depth 0.00 in    
Sea Level Pressure  
Sea Level Pressure 29.93 in    
Wind  
Wind Speed 5 mph (WSW)    
Max Wind Speed 15 mph    
Max Gust Speed 25 mph    
Visibility 8 miles    
Events Rain , Thunderstorm    
T = Trace of Precipitation, MM = Missing Value Source: NWS Daily Summary

Daily Weather History Graph

Daily Weather History Graph

Search for Another Location

Airport or City:

Trip Planner

Search our weather history database for the weather conditions in past years. The results will help you decide how hot, cold, wet, or windy it might be!

Date:

Astronomy

Apr. 05, 2013 Rise Set
Actual Time 7:07 AM EDT 7:39 PM EDT
Civil Twilight 6:44 AM EDT 8:03 PM EDT
Nautical Twilight 6:17 AM EDT 8:30 PM EDT
Astronomical Twilight 5:50 AM EDT 8:57 PM EDT
Moon 3:46 AM EDT (4/5) 3:27 PM EDT (4/5)
Length of Visible Light 13h 18m
Length of Day
12h 31m
Waning Crescent, 24% of the Moon is Illuminated
Apr 5
Waning Crescent
Apr 10
New
Apr 18
First Quarter
Apr 25
Full
May 2
Last Quarter

Hourly Weather History & Observations

Time (EDT) Temp. Dew Point Humidity Pressure Visibility Wind Dir Wind Speed Gust Speed Precip Events Conditions
12:53 AM 73.9 °F 71.1 °F 91% 29.98 in 10.0 mi Calm Calm - N/A   Overcast
1:16 AM 75.2 °F 71.6 °F 89% 29.97 in 8.0 mi Calm Calm - N/A   Overcast
1:53 AM 75.0 °F 70.0 °F 84% 29.95 in 8.0 mi Calm Calm - N/A   Overcast
2:38 AM 69.8 °F 66.2 °F 88% 30.02 in 1.8 mi Variable 3.5 mph - 0.18 in Rain Heavy Rain
2:50 AM 66.2 °F 64.4 °F 94% 29.98 in 2.0 mi NW 5.8 mph - 0.60 in Rain Heavy Rain
2:53 AM 66.9 °F 64.9 °F 93% 29.99 in 3.0 mi Variable 5.8 mph - 0.60 in Rain Rain
3:00 AM 66.2 °F 64.4 °F 94% 29.98 in 9.0 mi NNW 12.7 mph 18.4 mph 0.01 in Rain Light Rain
3:17 AM 66.2 °F 64.4 °F 94% 29.97 in 4.0 mi Variable 6.9 mph 16.1 mph 0.10 in Rain , Thunderstorm Heavy Thunderstorms and Rain
3:53 AM 66.9 °F 64.9 °F 93% 29.99 in 5.0 mi East 3.5 mph - 0.37 in Rain , Thunderstorm Thunderstorms and Rain
4:26 AM 66.2 °F 64.4 °F 94% 29.99 in 6.0 mi NW 5.8 mph - 0.04 in Rain Rain
4:53 AM 66.9 °F 64.9 °F 93% 29.98 in 7.0 mi Variable 5.8 mph - 0.11 in Rain Light Rain
5:53 AM 66.9 °F 64.9 °F 93% 29.97 in 7.0 mi Calm Calm - 0.02 in Rain Light Rain
6:53 AM 68.0 °F 64.9 °F 90% 29.96 in 10.0 mi Calm Calm - 0.01 in   Overcast
7:53 AM 66.9 °F 64.9 °F 93% 29.95 in 10.0 mi SE 4.6 mph - N/A   Overcast
8:53 AM 70.0 °F 66.0 °F 87% 29.92 in 10.0 mi SSE 9.2 mph - N/A   Overcast
9:53 AM 72.0 °F 66.0 °F 81% 29.94 in 10.0 mi SSE 6.9 mph - N/A   Overcast
10:53 AM 73.0 °F 66.9 °F 81% 29.95 in 10.0 mi South 6.9 mph - N/A   Overcast
11:53 AM 72.0 °F 66.0 °F 81% 29.98 in 10.0 mi West 9.2 mph - 0.00 in Rain Light Rain
12:53 PM 72.0 °F 64.9 °F 78% 29.92 in 10.0 mi Calm Calm - 0.01 in   Overcast
1:53 PM 72.0 °F 66.0 °F 81% 29.92 in 10.0 mi West 6.9 mph - N/A   Overcast
2:53 PM 73.0 °F 64.0 °F 73% 29.91 in 10.0 mi West 6.9 mph - N/A   Overcast
3:26 PM 69.8 °F 64.4 °F 83% 29.93 in 2.0 mi West 10.4 mph 17.3 mph 0.04 in Rain Heavy Rain
3:35 PM 69.8 °F 64.4 °F 83% 29.92 in 5.0 mi West 6.9 mph 19.6 mph 0.08 in Rain Light Rain
3:53 PM 66.9 °F 63.0 °F 87% 29.90 in 4.0 mi West 9.2 mph 17.3 mph 0.10 in Rain Light Rain
4:31 PM 66.2 °F 62.6 °F 88% 29.92 in 2.0 mi South 10.4 mph - 0.07 in Rain Rain
4:53 PM 66.0 °F 63.0 °F 90% 29.90 in 2.0 mi South 10.4 mph - 0.12 in Rain Rain
5:16 PM 66.2 °F 62.6 °F 88% 29.88 in 4.0 mi WSW 8.1 mph - 0.08 in Rain Rain
5:53 PM 66.0 °F 64.0 °F 93% 29.83 in 8.0 mi Calm Calm - 0.17 in Rain Light Rain
6:53 PM 66.9 °F 64.0 °F 90% 29.85 in 10.0 mi Calm Calm - 0.02 in   Mostly Cloudy
7:53 PM 66.9 °F 64.0 °F 90% 29.87 in 10.0 mi SW 5.8 mph - N/A   Mostly Cloudy
8:25 PM 66.2 °F 64.4 °F 94% 29.89 in 10.0 mi WSW 5.8 mph - N/A   Mostly Cloudy
8:42 PM 66.2 °F 64.4 °F 94% 29.89 in 10.0 mi SW 5.8 mph - N/A   Overcast
8:53 PM 66.9 °F 64.0 °F 90% 29.90 in 10.0 mi WSW 4.6 mph - N/A   Mostly Cloudy
9:28 PM 66.2 °F 64.4 °F 94% 29.91 in 10.0 mi WSW 3.5 mph - N/A   Scattered Clouds
9:45 PM 66.2 °F 64.4 °F 94% 29.92 in 10.0 mi WSW 4.6 mph - N/A   Mostly Cloudy
9:53 PM 69.3 °F 66.2 °F 90% 29.92 in 10.0 mi WSW 5.8 mph - N/A   Mostly Cloudy
10:16 PM 68.0 °F 66.2 °F 94% 29.93 in 10.0 mi SW 5.8 mph - N/A   Overcast
10:53 PM 68.2 °F 66.4 °F 94% 29.94 in 10.0 mi WSW 5.8 mph - N/A   Overcast
11:53 PM 66.9 °F 63.0 °F 87% 29.95 in 10.0 mi West 6.9 mph - N/A   Overcast